TimeCDT,TemperatureF,Dew PointF,Humidity,Sea Level PressureIn,VisibilityMPH,Wind Direction,Wind SpeedMPH,Gust SpeedMPH,PrecipitationIn,Events,Conditions,WindDirDegrees,DateUTC
12:53 AM,54.0,46.9,77,30.04,10.0,South,4.6,-,N/A,,Clear,190,2011-10-26 05:53:00
1:53 AM,57.0,50.0,77,30.05,10.0,SSW,5.8,-,N/A,,Clear,210,2011-10-26 06:53:00
2:53 AM,55.9,51.1,84,30.04,10.0,SW,3.5,-,N/A,,Clear,230,2011-10-26 07:53:00
3:53 AM,55.0,51.1,86,30.04,10.0,Calm,Calm,-,N/A,,Clear,0,2011-10-26 08:53:00
4:53 AM,55.9,53.1,90,30.04,10.0,Calm,Calm,-,N/A,,Clear,0,2011-10-26 09:53:00
5:53 AM,53.6,51.8,94,30.03,7.0,Calm,Calm,-,N/A,,Clear,0,2011-10-26 10:53:00
6:53 AM,55.0,53.1,93,30.05,6.0,Calm,Calm,-,N/A,,Clear,0,2011-10-26 11:53:00
7:53 AM,57.9,55.9,93,30.05,7.0,Calm,Calm,-,N/A,,Mostly Cloudy,0,2011-10-26 12:53:00
8:53 AM,62.1,57.9,86,30.06,9.0,SSW,6.9,-,N/A,,Mostly Cloudy,210,2011-10-26 13:53:00
9:53 AM,66.2,59.0,78,30.04,10.0,SW,9.2,-,N/A,,Clear,220,2011-10-26 14:53:00
10:53 AM,72.0,61.0,68,30.05,10.0,WSW,10.4,-,N/A,,Clear,240,2011-10-26 15:53:00
11:53 AM,75.9,59.0,56,30.03,10.0,WSW,10.4,-,N/A,,Clear,240,2011-10-26 16:53:00
12:53 PM,78.1,59.0,52,29.99,10.0,SW,9.2,-,N/A,,Clear,220,2011-10-26 17:53:00
1:53 PM,80.1,60.1,50,29.96,10.0,WSW,8.1,-,N/A,,Clear,250,2011-10-26 18:53:00
2:53 PM,82.0,59.0,45,29.93,10.0,SSW,8.1,-,N/A,,Clear,200,2011-10-26 19:53:00
3:53 PM,82.0,59.0,45,29.91,10.0,SW,9.2,-,N/A,,Clear,220,2011-10-26 20:53:00
4:53 PM,81.0,57.9,45,29.90,10.0,SW,10.4,-,N/A,,Clear,230,2011-10-26 21:53:00
5:53 PM,78.1,57.9,50,29.90,10.0,SW,5.8,-,N/A,,Clear,220,2011-10-26 22:53:00
6:53 PM,73.4,57.2,57,29.88,10.0,Calm,Calm,-,N/A,,Clear,0,2011-10-26 23:53:00
7:53 PM,70.0,57.0,63,29.91,10.0,Calm,Calm,-,N/A,,Mostly Cloudy,0,2011-10-27 00:53:00
8:53 PM,69.1,55.9,63,29.90,10.0,South,3.5,-,N/A,,Clear,180,2011-10-27 01:53:00
9:53 PM,66.9,54.0,63,29.91,10.0,SSW,4.6,-,N/A,,Clear,200,2011-10-27 02:53:00
10:53 PM,64.0,53.1,67,29.90,10.0,SSW,5.8,-,N/A,,Clear,200,2011-10-27 03:53:00
11:53 PM,61.0,52.0,72,29.90,10.0,Calm,Calm,-,N/A,,Clear,0,2011-10-27 04:53:00